[[{"header":{"parameterUnit":"m.s-1","parameterCategory":2,"la1":30.2991,"la2":30.254,"lo1":-89.0895,"lo2":-89.0444,"dy":0.0017,"dx":0.0017,"nx":28,"ny":28,"refTime":"2025-08-04T03:00:00:Z","depth":"0","parameterNumber":2,"parameterNumberName":"U-component_of_CURRENTS"},"data":[0,0,0,0,0,0,0,0,0,0,0,0,0,0,0,0,0,0,0,0,0,0,0,0,0,0,0,0,0,0,0,0,0,0,0,0,0,0,0,0,0,0,0,0,0,0,0,0,0,0,0,0,0,0,0,0,0,0,-0.3782,-0.3783,0,-0.3831,-0.3831,-0.3831,-0.3769,-0.3767,-0.3765,-0.3763,-0.3766,-0.3768,-0.377,0,0,0,0,0,0,0,0,0,0,0,0,0,-0.3503,-0.3509,-0.3782,-0.3783,-0.3784,-0.3831,-0.3831,-0.3831,-0.3769,-0.3767,-0.3765,-0.3762,-0.3766,-0.3768,-0.377,0,0,0,0,0,0,0,0,0,0,0,0,0,-0.3591,-0.3511,-0.3782,-0.3762,-0.3761,-0.3831,-0.3831,-0.3831,-0.377,-0.3767,-0.3764,-0.3761,-0.3765,-0.3768,-0.377,-0.3842,0,0,-0.3778,-0.378,0,0,0,0,0,0,0,0,-0.3587,-0.3601,-0.3764,-0.3764,-0.3763,-0.3795,-0.3734,-0.3834,-0.377,-0.3761,-0.3763,-0.376,-0.3777,-0.3778,-0.3788,-0.3842,-0.3842,-0.3779,-0.378,-0.3781,-0.3782,0,0,0,0,0,0,0,-0.3581,-0.3598,-0.3796,-0.3766,-0.3765,-0.3706,-0.3716,-0.3752,-0.378,-0.3762,-0.3759,-0.3773,-0.3775,-0.3785,-0.3787,-0.3842,-0.3779,-0.3781,-0.3783,-0.3784,-0.393,-0.3932,0,0,0,0,0,0,-0.3596,-0.3594,-0.3795,-0.3798,-0.3671,-0.3714,-0.3725,-0.3784,-0.378,-0.3779,-0.3775,-0.377,-0.3782,-0.3784,-0.3787,-0.3806,-0.3781,-0.3784,-0.3785,-0.3928,-0.393,-0.3933,0,0,0,0,0,0,-0.359,-0.3615,-0.3793,-0.3697,-0.3716,-0.3723,-0.3788,-0.3786,-0.3787,-0.3791,-0.3787,-0.3777,-0.378,-0.3783,-0.3822,-0.3807,-0.3785,-0.3788,-0.3925,-0.3928,-0.3932,-0.3885,0,0,0,0,0,0,-0.3583,-0.3614,-0.3655,-0.3701,-0.3722,-0.3852,-0.3792,-0.3789,-0.3803,-0.3796,-0.3793,-0.379,-0.3778,-0.3819,-0.3825,-0.3811,-0.379,-0.3922,-0.3926,-0.393,-0.3884,-0.3887,-0.3889,0,0,0,0,0,-0.3573,-0.3649,-0.3658,-0.3681,-0.3783,-0.3855,-0.3861,-0.3849,-0.3806,-0.3833,-0.3819,-0.379,-0.3849,-0.3823,-0.383,-0.3816,-0.392,-0.3925,-0.393,-0.3883,-0.3886,-0.3889,0,0,0,0,0,0,-0.3529,-0.3652,-0.3662,-0.3765,-0.3812,-0.3846,-0.3868,-0.3858,-0.3869,-0.385,-0.3828,-0.3829,-0.3855,-0.3869,-0.384,-0.3879,-0.3878,-0.3884,-0.3839,-0.3843,-0.3845,-0.3782,-0.3792,0,0,0,0,0,-0.355,-0.364,-0.3725,-0.3794,-0.383,-0.3847,-0.3868,-0.3869,-0.3888,-0.3887,-0.388,-0.3881,-0.3889,-0.389,-0.3917,-0.3947,-0.388,-0.3946,-0.3949,-0.395,-0.391,-0.3789,-0.3773,-0.3949,-0.3949,-0.3949,0,0,-0.3532,-0.3622,-0.3659,-0.379,-0.3819,-0.3853,-0.3852,-0.39,-0.3889,-0.3891,-0.3877,-0.3901,-0.3907,-0.3927,-0.3939,-0.3927,-0.3878,-0.3957,-0.3957,-0.3915,-0.3792,-0.3773,-0.3757,-0.3953,-0.3952,-0.3952,0,0,-0.3533,-0.3645,-0.3703,-0.3766,-0.3847,-0.3867,-0.3883,-0.3932,-0.3922,-0.3947,-0.3925,-0.393,-0.397,-0.3942,-0.3936,-0.3979,-0.3904,-0.4014,-0.3953,-0.3837,-0.3818,-0.3801,-0.3721,-0.3697,-0.4,-0.4,-0.4,0,-0.3487,-0.3588,-0.3719,-0.3785,-0.3798,-0.3867,-0.3873,-0.3904,-0.3942,-0.3912,-0.3939,-0.3923,-0.3953,-0.3898,-0.3926,-0.397,-0.3908,-0.3927,-0.3828,-0.381,-0.3792,-0.3714,-0.3688,-0.3999,-0.3999,-0.3999,-0.3999,0,-0.3522,-0.3589,-0.3629,-0.3725,-0.3777,-0.3805,-0.3869,-0.389,-0.3885,-0.3879,-0.3855,-0.3892,-0.3859,-0.3894,-0.3926,-0.3836,-0.3836,-0.3845,-0.3793,-0.377,-0.3693,-0.3666,-0.3996,-0.3997,-0.3997,-0.3998,0,0,-0.337,-0.36,-0.3591,-0.359,-0.3734,-0.3741,-0.3782,-0.3781,-0.372,-0.3781,-0.3678,-0.3741,-0.3748,-0.3746,-0.3781,-0.3706,-0.3579,-0.3732,-0.3727,-0.3605,-0.3331,-0.3292,-0.3259,-0.3555,-0.355,-0.3545,-0.3333,0,-0.3295,-0.3374,-0.3522,-0.3497,-0.3504,-0.3612,-0.3618,-0.3641,-0.3656,-0.3604,-0.3623,-0.3577,-0.3695,-0.3667,-0.3622,-0.36,-0.3502,-0.3636,-0.3413,-0.3407,-0.3332,-0.3223,-0.3105,-0.29,-0.3306,-0.3302,-0.3298,0,-0.3205,-0.327,-0.3279,-0.3327,-0.3337,-0.3353,-0.3315,-0.3337,-0.3353,-0.336,-0.3351,-0.3385,-0.3348,-0.3425,-0.3318,-0.3399,-0.3352,-0.3322,-0.3312,-0.3257,-0.3314,-0.299,-0.2835,-0.2835,-0.3256,-0.3259,-0.3262,0,-0.293,-0.3038,-0.3018,-0.305,-0.317,-0.3156,-0.3187,-0.3231,-0.3222,-0.319,-0.3169,-0.3145,-0.3121,-0.3064,-0.3125,-0.318,-0.2971,-0.3027,-0.2925,-0.2924,-0.2765,-0.2758,-0.2528,-0.2849,-0.2849,-0.285,-0.285,0,-0.2748,-0.2706,-0.2887,-0.2869,-0.2802,-0.2943,-0.287,-0.2912,-0.2952,-0.292,-0.3016,-0.298,-0.3024,-0.2982,-0.3003,-0.2898,-0.2868,-0.2856,-0.2832,-0.2759,-0.2754,-0.2705,-0.2766,-0.2842,-0.2844,-0.2845,-0.2847,0,-0.2475,-0.2595,-0.257,-0.2676,-0.2692,-0.2641,-0.2739,-0.2703,-0.276,-0.2724,-0.2714,-0.2802,-0.2759,-0.28,-0.2701,-0.2722,-0.2573,-0.2583,-0.2528,-0.2501,-0.241,-0.2476,-0.221,-0.215,-0.2387,-0.2385,-0.2382,0,-0.2369,-0.2336,-0.2416,-0.2411,-0.2473,-0.2459,-0.2475,-0.2577,-0.2583,-0.2629,-0.2597,-0.2576,-0.2566,-0.245,-0.2435,-0.2357,-0.2419,-0.2205,-0.2275,-0.2323,-0.2378,-0.2443,-0.2419,-0.2063,-0.2059,-0.2055,-0.2052,0,-0.2163,-0.22,-0.221,-0.2214,-0.2224,-0.223,-0.2271,-0.2257,-0.2375,-0.2366,-0.2363,-0.2344,-0.2288,-0.2189,-0.2128,-0.2089,-0.2157,-0.2122,-0.2136,-0.2048,-0.2128,-0.2088,-0.2343,-0.2017,-0.202,-0.2023,-0.2025,-0.2026,-0.202,-0.199,-0.2024,-0.2008,-0.2022,-0.2017,-0.1973,-0.2044,-0.2031,-0.2032,-0.2114,-0.2062,-0.2029,-0.193,-0.1884,-0.1782,-0.1881,-0.1753,-0.1811,-0.1861,-0.1832,-0.2037,-0.1726,-0.1728,-0.1729,-0.173,-0.1732,0,-0.1854,-0.1846,-0.1826,-0.1813,-0.1773,-0.1841,-0.1846,-0.18,-0.1757,-0.1808,-0.179,-0.1768,-0.166,-0.1658,-0.1579,-0.151,-0.1494,-0.1496,-0.1542,-0.1519,-0.1624,-0.1643,-0.1339,-0.1339,-0.134,-0.134,-0.134,-0.134,-0.1766,-0.1696,-0.1699,-0.1585,-0.1573,-0.1485,-0.1461,-0.1426,-0.1433,-0.1393,-0.1413,-0.1458,-0.1484,-0.1598,-0.1495,-0.1415,-0.1416,-0.1355,-0.1421,-0.1523,-0.1553,-0.1581,-0.1608,-0.1302,-0.1302,-0.1236,-0.1236,-0.1236]},{"header":{"parameterUnit":"m.s-1","parameterCategory":2,"la1":30.2991,"la2":30.254,"lo1":-89.0895,"lo2":-89.0444,"dy":0.0017,"dx":0.0017,"nx":28,"ny":28,"refTime":"2025-08-04T03:00:00:Z","depth":"0","parameterNumber":3,"parameterNumberName":"V-component_of_CURRENTS"},"data":[0,0,0,0,0,0,0,0,0,0,0,0,0,0,0,0,0,0,0,0,0,0,0,0,0,0,0,0,0,0,0,0,0,0,0,0,0,0,0,0,0,0,0,0,0,0,0,0,0,0,0,0,0,0,0,0,0,0,-0.0029,-0.0027,0,0.0175,0.0178,0.018,0.0287,0.0287,0.0287,0.0287,0.0642,0.0652,0.0661,0,0,0,0,0,0,0,0,0,0,0,0,0,-0.0204,-0.0202,-0.0029,-0.0027,-0.0024,0.0175,0.0178,0.0181,0.0287,0.0287,0.0287,0.0287,0.0639,0.0651,0.0662,0,0,0,0,0,0,0,0,0,0,0,0,0,-0.0074,-0.0201,-0.0029,0.005,0.0059,0.0174,0.0178,0.0182,0.0287,0.0287,0.0287,0.0287,0.0635,0.0649,0.0664,0.0757,0,0,0.0708,0.0714,0,0,0,0,0,0,0,0,-0.0082,-0.0067,0.0036,0.0045,0.0055,0.0203,0.0246,0.038,0.0287,0.0204,0.0287,0.0287,0.0508,0.0532,0.0574,0.0773,0.0788,0.0709,0.0718,0.0724,0.0728,0,0,0,0,0,0,0,-0.0091,-0.0075,0.0055,0.0039,0.005,0.0117,0.0135,0.0273,0.036,0.0211,0.0219,0.0236,0.0514,0.0559,0.0583,0.0794,0.0708,0.0721,0.073,0.0736,0.1033,0.1032,0,0,0,0,0,0,-0.0129,-0.0084,0.0049,0.0061,-0.0019,0.012,0.014,0.0158,0.0355,0.0383,0.0236,0.024,0.0535,0.0566,0.0596,0.0659,0.0724,0.0737,0.0745,0.1034,0.1033,0.1032,0,0,0,0,0,0,-0.0133,-0.0119,0.004,-0.001,0.0015,0.0122,0.0143,0.0162,0.0202,0.0372,0.0403,0.0254,0.0536,0.0576,0.0691,0.0676,0.0744,0.0757,0.1035,0.1033,0.1032,0.0825,0,0,0,0,0,0,-0.0139,-0.0122,-0.0123,-0.0012,0.0016,0.0092,0.0143,0.0166,0.0212,0.0219,0.0398,0.0431,0.0539,0.0668,0.0705,0.0697,0.0768,0.1035,0.1034,0.1033,0.0832,0.0817,0.0803,0,0,0,0,0,-0.0146,-0.0156,-0.0124,-0.0108,0.0012,0.0092,0.0113,0.0191,0.0212,0.0226,0.0332,0.0425,0.0685,0.068,0.0723,0.0719,0.1036,0.1034,0.1033,0.0839,0.082,0.0803,0,0,0,0,0,0,-0.0237,-0.0142,-0.0106,-0.0087,-0.001,0.0108,0.0121,0.018,0.0274,0.0279,0.0432,0.0473,0.0566,0.0673,0.0663,0.0798,0.0872,0.0878,0.0709,0.0693,0.0678,0.066,0.078,0,0,0,0,0,-0.0258,-0.024,-0.0134,-0.0123,-0.0093,0.0012,0.0052,0.0109,0.0206,0.0246,0.0368,0.0491,0.0597,0.0664,0.0782,0.0871,0.0927,0.0892,0.0877,0.0864,0.0877,0.0925,0.0914,0.1027,0.1027,0.1027,0,0,-0.0293,-0.0239,-0.023,-0.0141,-0.0081,-0.0048,0.0036,0.0084,0.0113,0.0275,0.0346,0.0456,0.0609,0.069,0.0741,0.0777,0.0849,0.0861,0.0849,0.0871,0.0922,0.0911,0.0901,0.1025,0.1026,0.1026,0,0,-0.0364,-0.0307,-0.0319,-0.026,-0.0177,-0.0103,-0.0098,0.0018,0.0067,0.0155,0.0259,0.0351,0.0532,0.0621,0.0692,0.0676,0.077,0.071,0.0629,0.0672,0.0662,0.0655,0.0648,0.0642,0.0701,0.07,0.07,0,-0.0415,-0.04,-0.031,-0.0302,-0.0264,-0.0142,-0.0138,-0.0068,0.007,0.0115,0.015,0.0377,0.0497,0.0592,0.0574,0.0643,0.0665,0.0675,0.0648,0.0643,0.0639,0.0635,0.0631,0.069,0.0691,0.0693,0.0693,0,-0.0482,-0.0468,-0.0473,-0.0418,-0.0367,-0.0341,-0.0234,-0.0179,-0.0104,-0.0017,0.0093,0.0241,0.0377,0.0412,0.0495,0.053,0.0549,0.0616,0.068,0.0614,0.0615,0.0614,0.0676,0.0679,0.0682,0.0685,0,0,-0.0588,-0.0533,-0.0532,-0.0518,-0.0421,-0.0378,-0.0343,-0.025,-0.022,-0.0095,-0.0051,0.0113,0.0199,0.0284,0.039,0.043,0.0393,0.0496,0.0503,0.0464,0.0441,0.0514,0.0521,0.0444,0.0444,0.0444,0.0427,0,-0.0663,-0.0678,-0.0624,-0.0623,-0.0609,-0.0498,-0.047,-0.0372,-0.0275,-0.0202,-0.0057,0.0038,0.0147,0.0198,0.0251,0.0377,0.0394,0.039,0.0535,0.0539,0.0594,0.0526,0.0581,0.0578,0.0427,0.0427,0.0427,0,-0.0732,-0.0725,-0.0749,-0.0698,-0.0685,-0.067,-0.0579,-0.0535,-0.0408,-0.0338,-0.0225,-0.0101,0.0,0.0087,0.0239,0.0226,0.0314,0.0397,0.0399,0.0555,0.0615,0.0638,0.0585,0.075,0.0428,0.0428,0.0428,0,-0.0807,-0.0801,-0.0819,-0.08,-0.0736,-0.0729,-0.0686,-0.0574,-0.0529,-0.0421,-0.0377,-0.0232,-0.0147,-0.0024,0.0182,0.019,0.0333,0.0368,0.0509,0.0512,0.0641,0.0657,0.0759,0.0454,0.0454,0.0454,0.0454,0,-0.0873,-0.0883,-0.086,-0.0862,-0.0876,-0.0805,-0.0794,-0.0729,-0.0647,-0.0593,-0.045,-0.0371,-0.0167,-0.0031,0.0117,0.0319,0.0285,0.0486,0.0524,0.0565,0.0574,0.0795,0.0862,0.0453,0.0453,0.0454,0.0454,0,-0.0929,-0.092,-0.0937,-0.0913,-0.0909,-0.0911,-0.0864,-0.0846,-0.0766,-0.0702,-0.0674,-0.0487,-0.0305,-0.0099,0.0113,0.0255,0.0533,0.051,0.0524,0.0565,0.0837,0.0889,0.1043,0.1139,0.0613,0.0615,0.0616,0,-0.0954,-0.0974,-0.0981,-0.0995,-0.0988,-0.0984,-0.0978,-0.0908,-0.0881,-0.0744,-0.072,-0.0533,-0.0354,-0.0034,0.0238,0.0475,0.0626,0.0663,0.0714,0.0856,0.0942,0.0975,0.1046,0.076,0.0763,0.0765,0.0767,0,-0.0995,-0.1005,-0.1017,-0.1055,-0.1068,-0.1073,-0.106,-0.1057,-0.0962,-0.0885,-0.0741,-0.0595,-0.0255,0.0079,0.0407,0.0566,0.079,0.0715,0.0876,0.108,0.1112,0.1221,0.0726,0.0786,0.0784,0.0783,0.0782,0.0781,-0.1021,-0.1046,-0.107,-0.1101,-0.1126,-0.1143,-0.1134,-0.1098,-0.1038,-0.0888,-0.0755,-0.0479,-0.003,0.0457,0.0633,0.1023,0.0971,0.1147,0.1191,0.1205,0.1341,0.087,0.0984,0.0983,0.0982,0.0982,0.0981,0,-0.1033,-0.1064,-0.1106,-0.1142,-0.1177,-0.1174,-0.1167,-0.1121,-0.1032,-0.0855,-0.0667,-0.0109,0.0343,0.0751,0.1272,0.1487,0.1531,0.1593,0.1656,0.1702,0.1302,0.1358,0.1545,0.1544,0.1544,0.1544,0.1544,0.1544,-0.1038,-0.1079,-0.1105,-0.1166,-0.1194,-0.1201,-0.1187,-0.1093,-0.0952,-0.0607,-0.0269,0.0015,0.0608,0.1381,0.1868,0.1919,0.2102,0.2085,0.217,0.1905,0.1867,0.183,0.1901,0.2198,0.2199,0.2573,0.2577,0.2579]}],[{"header":{"parameterUnit":"m.s-1","parameterCategory":2,"la1":30.2991,"la2":30.254,"lo1":-89.0895,"lo2":-89.0444,"dy":0.0017,"dx":0.0017,"nx":28,"ny":28,"refTime":"2025-08-04T03:00:00:Z","depth":"2","parameterNumber":2,"parameterNumberName":"U-component_of_CURRENTS"},"data":[0,0,0,0,0,0,0,0,0,0,0,0,0,0,0,0,0,0,0,0,0,0,0,0,0,0,0,0,0,0,0,0,0,0,0,0,0,0,0,0,0,0,0,0,0,0,0,0,0,0,0,0,0,0,0,0,0,0,-0.2539,-0.2541,0,-0.2671,-0.2672,-0.2673,-0.264,-0.2638,-0.2636,-0.2634,-0.2621,-0.2623,-0.2624,0,0,0,0,0,0,0,0,0,0,0,0,0,-0.2395,-0.2397,-0.2538,-0.2541,-0.2543,-0.2671,-0.2672,-0.2673,-0.264,-0.2638,-0.2636,-0.2633,-0.2621,-0.2622,-0.2624,0,0,0,0,0,0,0,0,0,0,0,0,0,-0.2479,-0.2397,-0.2538,-0.2547,-0.255,-0.2671,-0.2672,-0.2674,-0.2641,-0.2638,-0.2635,-0.2632,-0.262,-0.2622,-0.2624,-0.2698,0,0,-0.2631,-0.2632,0,0,0,0,0,0,0,0,-0.2474,-0.2483,-0.2543,-0.2547,-0.255,-0.2642,-0.2617,-0.2677,-0.2642,-0.2599,-0.2634,-0.2631,-0.2621,-0.2623,-0.2647,-0.2697,-0.2696,-0.2631,-0.2633,-0.2634,-0.2634,0,0,0,0,0,0,0,-0.2468,-0.2478,-0.2584,-0.2546,-0.255,-0.2592,-0.2599,-0.2629,-0.2617,-0.2603,-0.2602,-0.2629,-0.262,-0.2645,-0.2646,-0.2696,-0.2631,-0.2633,-0.2635,-0.2636,-0.2836,-0.284,0,0,0,0,0,0,-0.2462,-0.2472,-0.258,-0.2589,-0.2511,-0.2597,-0.2604,-0.261,-0.262,-0.2622,-0.2631,-0.2627,-0.2643,-0.2644,-0.2646,-0.2704,-0.2634,-0.2636,-0.2637,-0.2832,-0.2837,-0.2841,0,0,0,0,0,0,-0.2458,-0.2469,-0.2575,-0.254,-0.2557,-0.2602,-0.2609,-0.2614,-0.2633,-0.2645,-0.2641,-0.2644,-0.2641,-0.2642,-0.2717,-0.2703,-0.2637,-0.2639,-0.2827,-0.2834,-0.2839,-0.2838,0,0,0,0,0,0,-0.2452,-0.2466,-0.2469,-0.2539,-0.2559,-0.2646,-0.2613,-0.2619,-0.2658,-0.2653,-0.2656,-0.2652,-0.2638,-0.2715,-0.2719,-0.2705,-0.2641,-0.2822,-0.283,-0.2837,-0.2833,-0.2843,-0.2852,0,0,0,0,0,-0.2446,-0.2471,-0.2468,-0.2482,-0.256,-0.2649,-0.2663,-0.2681,-0.2661,-0.2683,-0.2716,-0.2651,-0.2763,-0.2721,-0.2726,-0.2711,-0.2819,-0.2828,-0.2837,-0.2829,-0.2841,-0.2852,0,0,0,0,0,0,-0.2421,-0.2473,-0.247,-0.2509,-0.2572,-0.2645,-0.268,-0.2692,-0.2737,-0.2736,-0.272,-0.2723,-0.2782,-0.2781,-0.2734,-0.2803,-0.2773,-0.2784,-0.2766,-0.2778,-0.2787,-0.2748,-0.2643,0,0,0,0,0,-0.2417,-0.2436,-0.2504,-0.2537,-0.2569,-0.2624,-0.2662,-0.2685,-0.2741,-0.2755,-0.277,-0.2797,-0.283,-0.2829,-0.2876,-0.2916,-0.2859,-0.2913,-0.2923,-0.293,-0.2911,-0.2827,-0.2823,-0.2871,-0.2871,-0.287,0,0,-0.2417,-0.2452,-0.2461,-0.2533,-0.2579,-0.2635,-0.2637,-0.2713,-0.2752,-0.2751,-0.2812,-0.2846,-0.2863,-0.2915,-0.2935,-0.2898,-0.2899,-0.2941,-0.2946,-0.2923,-0.2835,-0.2829,-0.2823,-0.2877,-0.2876,-0.2875,0,0,-0.2443,-0.246,-0.2486,-0.2543,-0.2629,-0.2664,-0.2685,-0.2773,-0.2796,-0.2894,-0.2889,-0.2925,-0.2997,-0.2982,-0.2985,-0.3083,-0.2973,-0.3096,-0.3072,-0.2991,-0.2983,-0.2976,-0.2918,-0.2905,-0.3071,-0.3071,-0.3071,0,-0.2442,-0.2467,-0.2515,-0.2571,-0.2602,-0.267,-0.2707,-0.2773,-0.2875,-0.2877,-0.292,-0.2989,-0.302,-0.3002,-0.3055,-0.3088,-0.3033,-0.3009,-0.2991,-0.2982,-0.2974,-0.2917,-0.2902,-0.3072,-0.3071,-0.3071,-0.3071,0,-0.2488,-0.2512,-0.2547,-0.2605,-0.2654,-0.2711,-0.2793,-0.285,-0.2895,-0.2927,-0.297,-0.3036,-0.3041,-0.3071,-0.3103,-0.3055,-0.3034,-0.3022,-0.2932,-0.2967,-0.2909,-0.2893,-0.3073,-0.3073,-0.3072,-0.3072,0,0,-0.2451,-0.2547,-0.2554,-0.2556,-0.2665,-0.2698,-0.278,-0.2821,-0.2824,-0.2934,-0.2907,-0.3015,-0.3013,-0.3023,-0.3036,-0.2989,-0.293,-0.2986,-0.2981,-0.2876,-0.2749,-0.27,-0.2678,-0.2887,-0.2884,-0.2882,-0.2736,0,-0.2453,-0.2511,-0.2566,-0.2601,-0.2619,-0.2695,-0.2745,-0.2801,-0.2854,-0.2869,-0.2902,-0.2917,-0.2999,-0.299,-0.2965,-0.295,-0.2886,-0.2971,-0.2778,-0.2773,-0.2678,-0.2658,-0.2483,-0.2334,-0.272,-0.2717,-0.2715,0,-0.245,-0.2478,-0.2504,-0.2536,-0.255,-0.2591,-0.261,-0.2672,-0.272,-0.2759,-0.2766,-0.28,-0.279,-0.2849,-0.2782,-0.2825,-0.2791,-0.2771,-0.2763,-0.2696,-0.2693,-0.2365,-0.229,-0.2689,-0.2691,-0.2693,-0.2695,0,-0.2334,-0.2413,-0.2402,-0.2429,-0.2507,-0.2515,-0.2552,-0.2615,-0.2641,-0.2658,-0.2665,-0.2656,-0.2661,-0.2615,-0.2663,-0.2689,-0.2568,-0.258,-0.2488,-0.2485,-0.2288,-0.2272,-0.2475,-0.2475,-0.2475,-0.2476,-0.2476,0,-0.2271,-0.226,-0.2348,-0.2344,-0.2327,-0.2415,-0.2404,-0.2457,-0.2507,-0.2504,-0.2579,-0.2571,-0.2603,-0.2578,-0.2584,-0.2503,-0.2493,-0.2462,-0.2426,-0.2294,-0.2281,-0.2556,-0.2568,-0.247,-0.2472,-0.2473,-0.2474,0,-0.2133,-0.2197,-0.219,-0.2257,-0.2273,-0.226,-0.233,-0.2332,-0.2401,-0.2399,-0.2399,-0.2476,-0.2445,-0.2467,-0.2399,-0.2394,-0.2319,-0.2282,-0.2153,-0.2105,-0.2304,-0.2319,-0.2121,-0.2118,-0.2115,-0.2112,-0.211,0,-0.2058,-0.2047,-0.2106,-0.2102,-0.213,-0.2142,-0.2161,-0.2256,-0.2273,-0.2343,-0.2326,-0.2326,-0.2305,-0.2217,-0.2177,-0.2094,-0.2209,-0.1901,-0.1922,-0.2273,-0.2259,-0.2278,-0.2296,-0.1671,-0.1666,-0.1661,-0.1658,0,-0.1911,-0.1948,-0.1949,-0.1957,-0.197,-0.1981,-0.202,-0.2023,-0.2131,-0.2141,-0.2145,-0.2124,-0.2076,-0.193,-0.1868,-0.1814,-0.1907,-0.1808,-0.2134,-0.1816,-0.1844,-0.1833,-0.1865,-0.1618,-0.1622,-0.1625,-0.1627,-0.1629,-0.1799,-0.1776,-0.1802,-0.1792,-0.1811,-0.181,-0.1776,-0.1834,-0.1834,-0.1835,-0.1916,-0.1837,-0.1831,-0.1633,-0.1549,-0.1495,-0.1631,-0.1568,-0.1583,-0.1602,-0.1604,-0.1628,-0.1362,-0.1365,-0.1367,-0.1369,-0.137,0,-0.1654,-0.1649,-0.1636,-0.1629,-0.1598,-0.1661,-0.1669,-0.1621,-0.1576,-0.1604,-0.158,-0.1416,-0.1312,-0.1319,-0.1163,-0.1138,-0.1137,-0.11,-0.11,-0.1138,-0.1173,-0.1156,-0.0793,-0.0792,-0.0791,-0.0789,0,0,-0.1577,-0.1518,-0.152,-0.1423,-0.1416,-0.1336,-0.1313,-0.1268,-0.1254,-0.1172,-0.1136,-0.1228,-0.1259,-0.1029,-0.0974,-0.0855,-0.0988,-0.0807,-0.1265,-0.1301,-0.1334,-0.1432,-0.1447,0,0,0,0,0]},{"header":{"parameterUnit":"m.s-1","parameterCategory":2,"la1":30.2991,"la2":30.254,"lo1":-89.0895,"lo2":-89.0444,"dy":0.0017,"dx":0.0017,"nx":28,"ny":28,"refTime":"2025-08-04T03:00:00:Z","depth":"2","parameterNumber":3,"parameterNumberName":"V-component_of_CURRENTS"},"data":[0,0,0,0,0,0,0,0,0,0,0,0,0,0,0,0,0,0,0,0,0,0,0,0,0,0,0,0,0,0,0,0,0,0,0,0,0,0,0,0,0,0,0,0,0,0,0,0,0,0,0,0,0,0,0,0,0,0,-0.0339,-0.0338,0,-0.0254,-0.0253,-0.0252,-0.019,-0.0189,-0.0189,-0.0189,-0.01,-0.0098,-0.0095,0,0,0,0,0,0,0,0,0,0,0,0,0,-0.0346,-0.0347,-0.0339,-0.0338,-0.0337,-0.0255,-0.0253,-0.0251,-0.019,-0.0189,-0.0189,-0.0189,-0.01,-0.0098,-0.0095,0,0,0,0,0,0,0,0,0,0,0,0,0,-0.0307,-0.0347,-0.0339,-0.0299,-0.0295,-0.0255,-0.0253,-0.0251,-0.019,-0.0189,-0.0189,-0.0189,-0.0101,-0.0098,-0.0095,-0.008,0,0,-0.0085,-0.0083,0,0,0,0,0,0,0,0,-0.0309,-0.0306,-0.0306,-0.0302,-0.0297,-0.0236,-0.0223,-0.0195,-0.019,-0.0226,-0.0189,-0.0189,-0.0147,-0.014,-0.012,-0.0076,-0.0072,-0.0084,-0.0082,-0.0081,-0.008,0,0,0,0,0,0,0,-0.0312,-0.0309,-0.0301,-0.0305,-0.03,-0.0252,-0.0246,-0.0216,-0.0186,-0.0223,-0.0219,-0.0216,-0.0144,-0.0123,-0.0117,-0.0071,-0.0085,-0.0082,-0.008,-0.0078,0.0106,0.0109,0,0,0,0,0,0,-0.0336,-0.0312,-0.0304,-0.0299,-0.0307,-0.0252,-0.0246,-0.0253,-0.0186,-0.0177,-0.0216,-0.0213,-0.0129,-0.0121,-0.0114,-0.0069,-0.0081,-0.0078,-0.0076,0.0103,0.0107,0.011,0,0,0,0,0,0,-0.0337,-0.0337,-0.0308,-0.0306,-0.03,-0.0254,-0.0261,-0.0251,-0.0233,-0.0182,-0.0172,-0.0208,-0.0128,-0.0118,-0.0052,-0.0067,-0.0076,-0.0073,0.01,0.0104,0.0108,0.0004,0,0,0,0,0,0,-0.0338,-0.0338,-0.0347,-0.0308,-0.0301,-0.0299,-0.0261,-0.025,-0.0233,-0.0228,-0.0172,-0.0163,-0.0127,-0.0057,-0.0049,-0.0062,-0.0071,0.0096,0.0102,0.0107,0.0004,0.0004,0.0005,0,0,0,0,0,-0.0338,-0.0363,-0.0348,-0.0347,-0.0316,-0.03,-0.0291,-0.0254,-0.0233,-0.0234,-0.016,-0.0165,-0.0016,-0.0052,-0.0043,-0.0057,0.0093,0.01,0.0107,0.0004,0.0004,0.0005,0,0,0,0,0,0,-0.0373,-0.0358,-0.0341,-0.036,-0.0336,-0.0291,-0.029,-0.0261,-0.0205,-0.0193,-0.0137,-0.0122,-0.0065,-0.0026,-0.0067,0.0027,0.0041,0.0049,-0.004,-0.0039,-0.0039,-0.0055,-0.0068,0,0,0,0,0,-0.0386,-0.0397,-0.0371,-0.0382,-0.0377,-0.0332,-0.0319,-0.0293,-0.0242,-0.0218,-0.0169,-0.0096,-0.0029,-0.0009,0.0056,0.0089,0.0126,0.01,0.01,0.0099,0.0102,0.0178,0.0183,0.0131,0.0131,0.0131,0,0,-0.0402,-0.0394,-0.04,-0.0389,-0.0366,-0.036,-0.0323,-0.0312,-0.029,-0.0218,-0.0166,-0.0098,-0.0011,0.0043,0.007,0.0065,0.0131,0.0108,0.0105,0.0109,0.0185,0.0189,0.0193,0.0136,0.0135,0.0134,0,0,-0.0443,-0.0435,-0.0457,-0.0442,-0.042,-0.0387,-0.039,-0.0344,-0.0309,-0.0249,-0.0176,-0.0104,-0.0021,0.0042,0.0085,0.0133,0.0139,0.0148,0.0112,0.0184,0.0187,0.019,0.0206,0.0211,0.0135,0.0134,0.0134,0,-0.0462,-0.0481,-0.0459,-0.047,-0.0458,-0.0406,-0.0413,-0.0371,-0.03,-0.0262,-0.0241,-0.0069,-0.0016,0.0068,0.0088,0.0124,0.0151,0.0081,0.0176,0.0181,0.0186,0.0202,0.0209,0.013,0.0131,0.0131,0.0131,0,-0.0512,-0.0521,-0.0534,-0.0524,-0.0508,-0.0508,-0.0454,-0.0419,-0.0364,-0.0308,-0.0209,-0.011,-0.001,0.0016,0.0058,0.0125,0.0125,0.0166,0.015,0.0183,0.02,0.0209,0.0124,0.0126,0.0127,0.0128,0,0,-0.0575,-0.057,-0.0574,-0.0569,-0.0535,-0.0525,-0.0488,-0.0432,-0.0396,-0.031,-0.0253,-0.0127,-0.0071,-0.0013,0.0049,0.0102,0.0141,0.0132,0.0138,0.0102,0.0255,0.0288,0.0301,0.0186,0.0188,0.019,0.0235,0,-0.0617,-0.0644,-0.0626,-0.0632,-0.0637,-0.0576,-0.0545,-0.0481,-0.0408,-0.034,-0.0226,-0.0144,-0.0084,-0.0044,0.0023,0.012,0.0168,0.0122,0.027,0.0274,0.0263,0.0316,0.029,0.0334,0.0244,0.0246,0.0247,0,-0.0676,-0.0679,-0.0701,-0.0672,-0.0669,-0.0661,-0.0592,-0.0556,-0.0448,-0.039,-0.0289,-0.0199,-0.0099,-0.0051,0.0114,0.0076,0.0161,0.023,0.0235,0.0313,0.0327,0.0303,0.0355,0.0263,0.0262,0.0261,0.026,0,-0.0726,-0.0731,-0.0743,-0.0738,-0.0701,-0.069,-0.066,-0.0571,-0.0532,-0.0425,-0.0383,-0.0241,-0.0169,-0.0037,0.0118,0.0111,0.0289,0.0302,0.0412,0.0412,0.0448,0.045,0.0433,0.0433,0.0433,0.0432,0.0432,0,-0.0777,-0.0788,-0.0771,-0.0779,-0.0783,-0.0739,-0.0721,-0.0667,-0.059,-0.0542,-0.0417,-0.0343,-0.0156,-0.0025,0.0101,0.0284,0.0285,0.0417,0.0446,0.0411,0.0409,0.0407,0.0404,0.0434,0.0434,0.0433,0.0433,0,-0.083,-0.0822,-0.0839,-0.0817,-0.0814,-0.0816,-0.078,-0.0757,-0.0682,-0.0619,-0.059,-0.0418,-0.0245,-0.0062,0.0152,0.0267,0.0431,0.0501,0.042,0.044,0.0493,0.0484,0.0603,0.0605,0.0606,0.0608,0.0609,0,-0.0855,-0.0874,-0.0879,-0.0893,-0.0889,-0.0885,-0.088,-0.0814,-0.0786,-0.0653,-0.0626,-0.0445,-0.0289,0.0019,0.0247,0.0468,0.0485,0.0573,0.0584,0.0504,0.052,0.0509,0.0498,0.0565,0.0566,0.0566,0.0567,0,-0.0898,-0.0907,-0.0918,-0.0952,-0.0964,-0.0968,-0.0955,-0.0948,-0.0857,-0.0781,-0.0645,-0.0512,-0.0205,0.006,0.0353,0.0482,0.0531,0.0593,0.0564,0.0534,0.0476,0.0489,0.0478,0.0572,0.0572,0.0571,0.0571,0.0571,-0.0926,-0.0949,-0.0971,-0.1,-0.1022,-0.1036,-0.1029,-0.0992,-0.0933,-0.0792,-0.067,-0.0433,-0.0194,0.0242,0.0433,0.0612,0.0614,0.0662,0.0657,0.0652,0.0648,0.0599,0.0712,0.0712,0.0712,0.0713,0.0713,0,-0.0944,-0.0971,-0.101,-0.1043,-0.1074,-0.1071,-0.1061,-0.1019,-0.0939,-0.0782,-0.0614,-0.0312,-0.001,0.0235,0.0526,0.0694,0.067,0.0714,0.0649,0.0643,0.0638,0.0631,0.0692,0.0692,0.0693,0.0693,0,0,-0.0952,-0.0991,-0.1013,-0.107,-0.1097,-0.1106,-0.1093,-0.1009,-0.0887,-0.071,-0.0523,-0.0283,0.0018,0.0218,0.0419,0.0565,0.0557,0.0575,0.0577,0.047,0.0463,0.0597,0.058,0,0,0,0,0]}],[{"header":{"parameterUnit":"m.s-1","parameterCategory":2,"la1":30.2991,"la2":30.254,"lo1":-89.0895,"lo2":-89.0444,"dy":0.0017,"dx":0.0017,"nx":28,"ny":28,"refTime":"2025-08-04T03:00:00:Z","depth":"4","parameterNumber":2,"parameterNumberName":"U-component_of_CURRENTS"},"data":[0,0,0,0,0,0,0,0,0,0,0,0,0,0,0,0,0,0,0,0,0,0,0,0,0,0,0,0,0,0,0,0,0,0,0,0,0,0,0,0,0,0,0,0,0,0,0,0,0,0,0,0,0,0,0,0,0,0,-0.1521,-0.1521,0,-0.1562,-0.1562,-0.1563,-0.1582,-0.1582,-0.1582,-0.1582,-0.1578,-0.1578,-0.1578,0,0,0,0,0,0,0,0,0,0,0,0,0,-0.1496,-0.1496,-0.1521,-0.1521,-0.1522,-0.1562,-0.1562,-0.1563,-0.1582,-0.1582,-0.1582,-0.1581,-0.1578,-0.1578,-0.1578,0,0,0,0,0,0,0,0,0,0,0,0,0,-0.1519,-0.1496,-0.1521,-0.1536,-0.1537,-0.1562,-0.1562,-0.1563,-0.1582,-0.1582,-0.1582,-0.1581,-0.1578,-0.1578,-0.1578,-0.158,0,0,-0.1578,-0.1578,0,0,0,0,0,0,0,0,-0.1518,-0.152,-0.1533,-0.1535,-0.1537,-0.1566,-0.1552,-0.1566,-0.1582,-0.1565,-0.1582,-0.1581,-0.157,-0.157,-0.1579,-0.1579,-0.1579,-0.1578,-0.1578,-0.1578,-0.1578,0,0,0,0,0,0,0,-0.1516,-0.1519,-0.1538,-0.1534,-0.1536,-0.1553,-0.1556,-0.1555,-0.1567,-0.1567,-0.1568,-0.1572,-0.157,-0.1579,-0.1579,-0.1579,-0.1578,-0.1578,-0.1578,-0.1578,-0.1669,-0.1671,0,0,0,0,0,0,-0.1508,-0.1517,-0.1536,-0.1539,-0.1526,-0.1553,-0.1557,-0.1557,-0.1568,-0.157,-0.1572,-0.1573,-0.158,-0.1579,-0.1579,-0.1629,-0.1578,-0.1578,-0.1578,-0.1666,-0.1669,-0.1672,0,0,0,0,0,0,-0.1508,-0.151,-0.1535,-0.1529,-0.1533,-0.1553,-0.1554,-0.1558,-0.1587,-0.1573,-0.1574,-0.1599,-0.158,-0.1579,-0.16,-0.1627,-0.1578,-0.1577,-0.1664,-0.1667,-0.1671,-0.1698,0,0,0,0,0,0,-0.1507,-0.1509,-0.1521,-0.1528,-0.1533,-0.1557,-0.1554,-0.1559,-0.1588,-0.159,-0.1596,-0.1594,-0.1579,-0.1601,-0.16,-0.1626,-0.1577,-0.166,-0.1665,-0.167,-0.1694,-0.1702,-0.1709,0,0,0,0,0,-0.1506,-0.1519,-0.1521,-0.1525,-0.1544,-0.1557,-0.1562,-0.1577,-0.159,-0.1603,-0.1615,-0.1595,-0.163,-0.1602,-0.1601,-0.1627,-0.1658,-0.1664,-0.1669,-0.1691,-0.1701,-0.1709,0,0,0,0,0,0,-0.152,-0.1522,-0.1525,-0.154,-0.1551,-0.1561,-0.1585,-0.1592,-0.1615,-0.1627,-0.1613,-0.1613,-0.1643,-0.1642,-0.1611,-0.1674,-0.1647,-0.1652,-0.1664,-0.1673,-0.1681,-0.1666,-0.1577,0,0,0,0,0,-0.1527,-0.1535,-0.154,-0.1554,-0.1566,-0.1581,-0.1596,-0.1604,-0.1618,-0.163,-0.1633,-0.165,-0.1664,-0.1672,-0.1682,-0.1708,-0.1695,-0.1734,-0.1741,-0.1747,-0.174,-0.1729,-0.1733,-0.169,-0.169,-0.169,0,0,-0.1538,-0.154,-0.1547,-0.1558,-0.1575,-0.1593,-0.1591,-0.1621,-0.1639,-0.1625,-0.1662,-0.1671,-0.1679,-0.1709,-0.1724,-0.171,-0.1764,-0.1754,-0.1759,-0.1748,-0.1735,-0.1738,-0.1741,-0.1694,-0.1693,-0.1693,0,0,-0.1555,-0.1569,-0.158,-0.1591,-0.1613,-0.1623,-0.1635,-0.1657,-0.1675,-0.1709,-0.1707,-0.1718,-0.176,-0.1747,-0.1753,-0.1809,-0.1801,-0.1847,-0.1869,-0.1859,-0.1861,-0.1862,-0.1883,-0.1886,-0.1852,-0.1853,-0.1853,0,-0.1575,-0.1579,-0.1588,-0.1601,-0.1615,-0.1638,-0.1656,-0.168,-0.1705,-0.1711,-0.1731,-0.1767,-0.1767,-0.1776,-0.1812,-0.1817,-0.1838,-0.1825,-0.1863,-0.1865,-0.1865,-0.1886,-0.1888,-0.1855,-0.1854,-0.1854,-0.1854,0,-0.1584,-0.1603,-0.1617,-0.1636,-0.1652,-0.1678,-0.17,-0.1722,-0.1756,-0.1768,-0.1798,-0.1802,-0.1814,-0.1835,-0.1848,-0.1867,-0.189,-0.1867,-0.1827,-0.187,-0.1891,-0.1893,-0.1857,-0.1857,-0.1856,-0.1856,0,0,-0.1594,-0.1619,-0.1629,-0.1642,-0.1674,-0.1689,-0.1719,-0.1741,-0.1774,-0.1796,-0.1828,-0.1844,-0.1848,-0.1856,-0.1864,-0.187,-0.1906,-0.1897,-0.1895,-0.1894,-0.193,-0.1782,-0.1771,-0.1905,-0.1904,-0.1904,-0.1952,0,-0.1605,-0.1631,-0.164,-0.1678,-0.1694,-0.1715,-0.1747,-0.1769,-0.1808,-0.185,-0.184,-0.1883,-0.1859,-0.1892,-0.1884,-0.1912,-0.1911,-0.1897,-0.1908,-0.1909,-0.175,-0.1766,-0.1904,-0.1954,-0.1954,-0.1954,-0.1955,0,-0.1603,-0.162,-0.1651,-0.1693,-0.1708,-0.174,-0.1786,-0.1818,-0.1861,-0.1893,-0.1899,-0.1921,-0.1928,-0.1919,-0.1918,-0.1928,-0.1932,-0.194,-0.194,-0.1784,-0.1761,-0.1897,-0.1958,-0.1958,-0.1958,-0.1957,-0.1957,0,-0.1578,-0.163,-0.1655,-0.1668,-0.1719,-0.1744,-0.1784,-0.1829,-0.1857,-0.1926,-0.196,-0.1964,-0.1986,-0.1976,-0.1966,-0.1974,-0.1979,-0.1973,-0.1829,-0.1821,-0.1928,-0.1926,-0.1954,-0.1954,-0.1954,-0.1954,-0.1954,0,-0.1551,-0.1577,-0.1658,-0.1665,-0.1709,-0.1758,-0.1811,-0.1846,-0.1913,-0.1934,-0.1984,-0.1986,-0.201,-0.2005,-0.1994,-0.1903,-0.1977,-0.1825,-0.1807,-0.1948,-0.1947,-0.1932,-0.1928,-0.1956,-0.1955,-0.1955,-0.1955,0,-0.1478,-0.1537,-0.1572,-0.1657,-0.1687,-0.1719,-0.1804,-0.1836,-0.1921,-0.1952,-0.1975,-0.2022,-0.2004,-0.1999,-0.1999,-0.1912,-0.1863,-0.181,-0.1985,-0.1979,-0.1723,-0.1722,-0.167,-0.1665,-0.166,-0.1656,-0.1653,0,-0.1423,-0.1441,-0.1548,-0.1571,-0.1607,-0.1673,-0.1707,-0.181,-0.1834,-0.1931,-0.1924,-0.1962,-0.1962,-0.1833,-0.1853,-0.1796,-0.1757,-0.1741,-0.1701,-0.1698,-0.1687,-0.1693,-0.1697,-0.1646,-0.1645,-0.1644,-0.1643,0,-0.1316,-0.1383,-0.141,-0.1469,-0.1521,-0.156,-0.1625,-0.1634,-0.1736,-0.1842,-0.1806,-0.1783,-0.176,-0.1725,-0.1685,-0.1641,-0.1759,-0.1695,-0.1704,-0.1666,-0.1669,-0.1664,-0.1673,-0.1627,-0.163,-0.1631,-0.1632,0,-0.124,-0.1243,-0.1309,-0.134,-0.1404,-0.1415,-0.1471,-0.1492,-0.1533,-0.165,-0.1631,-0.1666,-0.1734,-0.1644,-0.1606,-0.1547,-0.152,-0.1469,-0.149,-0.1507,-0.1423,-0.14,-0.1248,0,0,0,0,0,-0.1152,-0.1146,-0.117,-0.1204,-0.1265,-0.1299,-0.1391,-0.1453,-0.157,-0.1493,-0.1556,-0.1518,-0.1462,-0.1487,-0.1386,-0.153,-0.1529,-0.1408,-0.1483,-0.1542,-0.156,-0.1471,0,0,0,0,0,0,-0.1094,-0.1113,-0.1124,-0.1084,-0.108,-0.113,-0.1183,-0.1265,-0.1232,-0.1352,-0.1322,-0.1414,-0.1376,-0.148,-0.1348,-0.1354,-0.1366,-0.1442,-0.1437,-0.1532,-0.1548,-0.1563,-0.1477,0,0,0,0,0]},{"header":{"parameterUnit":"m.s-1","parameterCategory":2,"la1":30.2991,"la2":30.254,"lo1":-89.0895,"lo2":-89.0444,"dy":0.0017,"dx":0.0017,"nx":28,"ny":28,"refTime":"2025-08-04T03:00:00:Z","depth":"4","parameterNumber":3,"parameterNumberName":"V-component_of_CURRENTS"},"data":[0,0,0,0,0,0,0,0,0,0,0,0,0,0,0,0,0,0,0,0,0,0,0,0,0,0,0,0,0,0,0,0,0,0,0,0,0,0,0,0,0,0,0,0,0,0,0,0,0,0,0,0,0,0,0,0,0,0,-0.0336,-0.0336,0,-0.0349,-0.0349,-0.0349,-0.0329,-0.0328,-0.0327,-0.0327,-0.0348,-0.035,-0.0351,0,0,0,0,0,0,0,0,0,0,0,0,0,-0.0294,-0.0294,-0.0336,-0.0336,-0.0336,-0.0349,-0.0349,-0.0349,-0.0329,-0.0328,-0.0327,-0.0327,-0.0348,-0.0349,-0.0351,0,0,0,0,0,0,0,0,0,0,0,0,0,-0.0308,-0.0295,-0.0336,-0.0329,-0.0328,-0.0349,-0.0349,-0.0349,-0.0329,-0.0328,-0.0327,-0.0326,-0.0348,-0.0349,-0.0351,-0.0378,0,0,-0.0356,-0.0357,0,0,0,0,0,0,0,0,-0.0308,-0.031,-0.0329,-0.0329,-0.0329,-0.0338,-0.0342,-0.036,-0.0329,-0.0327,-0.0327,-0.0326,-0.0347,-0.0349,-0.0351,-0.0379,-0.038,-0.0356,-0.0357,-0.0358,-0.0358,0,0,0,0,0,0,0,-0.0307,-0.0309,-0.0339,-0.033,-0.033,-0.0326,-0.0327,-0.0345,-0.0341,-0.0327,-0.0326,-0.033,-0.0347,-0.0349,-0.0351,-0.038,-0.0356,-0.0358,-0.0359,-0.0359,-0.0403,-0.0404,0,0,0,0,0,0,-0.0309,-0.0308,-0.0339,-0.034,-0.0318,-0.0327,-0.0328,-0.0334,-0.034,-0.0341,-0.0331,-0.0329,-0.0347,-0.0349,-0.0352,-0.0371,-0.0358,-0.0359,-0.036,-0.0403,-0.0404,-0.0404,0,0,0,0,0,0,-0.0308,-0.0312,-0.0338,-0.0325,-0.0329,-0.0329,-0.0336,-0.0335,-0.0342,-0.0343,-0.0343,-0.0339,-0.0346,-0.035,-0.037,-0.0372,-0.036,-0.0362,-0.0403,-0.0403,-0.0404,-0.0418,0,0,0,0,0,0,-0.0307,-0.0312,-0.0321,-0.0326,-0.033,-0.0357,-0.0337,-0.0336,-0.0346,-0.0344,-0.0351,-0.0351,-0.0346,-0.0367,-0.0371,-0.0374,-0.0363,-0.0403,-0.0403,-0.0404,-0.0417,-0.0418,-0.042,0,0,0,0,0,-0.0306,-0.0327,-0.0322,-0.0325,-0.0341,-0.0358,-0.036,-0.0356,-0.0348,-0.0358,-0.0357,-0.0352,-0.0371,-0.0369,-0.0374,-0.0377,-0.0403,-0.0403,-0.0404,-0.0416,-0.0418,-0.042,0,0,0,0,0,0,-0.0317,-0.0327,-0.0321,-0.0345,-0.0352,-0.0356,-0.0368,-0.0365,-0.0372,-0.0371,-0.0365,-0.0367,-0.0385,-0.0382,-0.0379,-0.0389,-0.0382,-0.0384,-0.0391,-0.0392,-0.0394,-0.0365,-0.0364,0,0,0,0,0,-0.0323,-0.034,-0.0345,-0.0364,-0.037,-0.037,-0.0378,-0.0375,-0.0381,-0.0383,-0.0384,-0.0384,-0.0391,-0.0392,-0.0402,-0.0415,-0.0364,-0.0416,-0.0417,-0.0418,-0.0397,-0.0328,-0.032,-0.0405,-0.0405,-0.0405,0,0,-0.0334,-0.0341,-0.0351,-0.0367,-0.0372,-0.0384,-0.0372,-0.039,-0.0394,-0.0387,-0.0397,-0.04,-0.0398,-0.0408,-0.0414,-0.0404,-0.0368,-0.0419,-0.042,-0.0398,-0.0327,-0.0318,-0.0311,-0.0405,-0.0405,-0.0405,0,0,-0.0362,-0.0369,-0.039,-0.0397,-0.0409,-0.0405,-0.0413,-0.0419,-0.0417,-0.0431,-0.0421,-0.0418,-0.0437,-0.042,-0.0418,-0.0433,-0.0385,-0.0443,-0.0419,-0.0353,-0.0344,-0.0336,-0.0256,-0.0241,-0.0434,-0.0434,-0.0434,0,-0.0374,-0.0396,-0.0399,-0.0417,-0.0422,-0.0416,-0.0432,-0.0433,-0.0442,-0.0431,-0.0437,-0.0424,-0.0435,-0.0414,-0.0419,-0.0434,-0.038,-0.0416,-0.0351,-0.0343,-0.0334,-0.0254,-0.0237,-0.0435,-0.0435,-0.0434,-0.0434,0,-0.0412,-0.0429,-0.0444,-0.0456,-0.0462,-0.0479,-0.0474,-0.0474,-0.0467,-0.0454,-0.0439,-0.0437,-0.0415,-0.0426,-0.0431,-0.038,-0.0356,-0.0368,-0.0343,-0.0326,-0.0244,-0.0225,-0.0436,-0.0435,-0.0435,-0.0435,0,0,-0.0446,-0.0465,-0.0472,-0.0475,-0.0482,-0.0491,-0.049,-0.0478,-0.0459,-0.0455,-0.0417,-0.0426,-0.04,-0.0393,-0.0389,-0.0334,-0.0243,-0.0323,-0.032,-0.0235,-0.0072,-0.0116,-0.01,-0.0239,-0.0236,-0.0234,-0.0036,0,-0.0474,-0.0507,-0.0506,-0.0528,-0.0541,-0.0523,-0.0519,-0.0503,-0.0477,-0.044,-0.0405,-0.0384,-0.0394,-0.038,-0.0325,-0.0274,-0.0197,-0.0294,-0.0108,-0.0101,-0.0136,-0.0081,-0.0225,-0.0022,-0.0018,-0.0015,-0.0013,0,-0.0516,-0.0527,-0.0556,-0.055,-0.0553,-0.0562,-0.0529,-0.0524,-0.0464,-0.0439,-0.0383,-0.0351,-0.028,-0.0293,-0.0145,-0.0204,-0.0129,-0.0078,-0.0069,-0.0088,-0.0112,-0.0045,0.0021,0.0018,0.0015,0.0013,0.0011,0,-0.0542,-0.0562,-0.058,-0.0585,-0.058,-0.0581,-0.0571,-0.0526,-0.0512,-0.0429,-0.0397,-0.0298,-0.0257,-0.0143,-0.006,-0.0084,0.0115,0.0095,0.0143,0.0141,0.0128,0.0117,0.0234,0.0233,0.0233,0.0232,0.0232,0,-0.057,-0.0589,-0.0598,-0.0612,-0.0625,-0.0607,-0.0601,-0.057,-0.0515,-0.0485,-0.0402,-0.0349,-0.0218,-0.0107,-0.0014,0.0117,0.016,0.0176,0.0195,0.0116,0.0102,0.0142,0.0129,0.024,0.0238,0.0237,0.0235,0,-0.0599,-0.0608,-0.0635,-0.064,-0.0646,-0.0656,-0.0648,-0.0631,-0.0575,-0.0525,-0.0499,-0.037,-0.0222,-0.0085,0.0105,0.0158,0.0295,0.0333,0.0261,0.0267,0.0279,0.0262,0.044,0.0441,0.0441,0.0441,0.0441,0,-0.0612,-0.0634,-0.0669,-0.0691,-0.0701,-0.0713,-0.0719,-0.0675,-0.0653,-0.0544,-0.0517,-0.0364,-0.027,-0.0007,0.0119,0.0336,0.0335,0.0421,0.0339,0.0303,0.0304,0.0287,0.027,0.0441,0.0442,0.0442,0.0442,0,-0.0633,-0.0659,-0.068,-0.0731,-0.0757,-0.0772,-0.0773,-0.076,-0.0692,-0.0644,-0.0507,-0.0363,-0.0194,-0.0008,0.0153,0.0293,0.0372,0.0423,0.0423,0.0348,0.0306,0.0303,0.0287,0.0442,0.0442,0.0442,0.0442,0,-0.0652,-0.0677,-0.0718,-0.0755,-0.0798,-0.0814,-0.0809,-0.0761,-0.0724,-0.0599,-0.0555,-0.0359,-0.0238,-0.0028,0.0117,0.0252,0.0275,0.0302,0.0309,0.031,0.018,0.0102,0.0221,0,0,0,0,0,-0.0656,-0.0686,-0.0731,-0.0772,-0.0818,-0.0835,-0.0834,-0.0814,-0.0753,-0.0661,-0.0601,-0.0438,-0.0195,-0.0083,0.0049,0.0094,0.0276,0.0248,0.0304,0.0446,0.0445,0.0306,0,0,0,0,0,0,-0.0659,-0.0708,-0.0729,-0.0779,-0.081,-0.0846,-0.0847,-0.0806,-0.0741,-0.0662,-0.0526,-0.043,-0.0193,-0.027,0.0046,0.0088,0.0134,0.0372,0.0374,0.0446,0.0446,0.0445,0.0302,0,0,0,0,0]}]]